Date,TemperatureHighF,TemperatureAvgF,TemperatureLowF,DewpointHighF,DewpointAvgF,DewpointLowF,HumidityHigh,HumidityAvg,HumidityLow,PressureMaxIn,PressureMinIn,WindSpeedMaxMPH,WindSpeedAvgMPH,GustSpeedMaxMPH,PrecipitationSumIn
2014-1-1,46.4,35.8,30.0,28.1,24.0,17.9,73,62,45,30.69,30.03,14,4,16,0.00
2014-1-2,34.3,20.7,6.3,29.0,13.0,-4.7,90,72,55,30.50,29.98,21,1,21,0.00
2014-1-3,27.3,11.9,-3.5,12.4,-0.9,-13.1,72,56,41,30.72,30.24,16,3,16,0.00
2014-1-4,42.1,30.2,17.1,21.3,11.7,3.0,58,46,34,30.30,30.01,32,8,32,0.17
2014-1-5,37.8,30.4,7.3,31.1,24.2,-0.8,91,78,47,30.14,29.57,14,1,14,0.02
2014-1-6,7.2,-7.3,-11.7,-0.8,-20.1,-26.2,69,52,43,30.71,30.09,1,0,1,0.00
2014-1-7,12.2,0.5,-11.6,-3.0,-13.7,-25.6,63,50,41,30.88,30.36,0,0,0,0.01
2014-1-8,30.9,19.6,7.3,17.3,9.1,-3.4,78,63,52,30.77,30.47,0,0,0,0.00
2014-1-9,36.3,24.7,12.6,29.8,17.7,6.2,89,75,58,30.88,30.40,2,0,3,0.02
2014-1-10,45.9,39.1,32.5,45.1,36.5,29.8,99,91,78,30.48,29.75,13,2,13,2.71
2014-1-11,47.7,39.7,33.4,47.4,36.7,29.4,99,89,76,30.26,29.59,30,9,30,0.19
2014-1-12,52.0,39.9,30.9,31.8,27.9,24.1,86,65,36,30.25,29.74,22,6,22,0.00
2014-1-13,52.5,48.5,36.7,43.3,35.8,27.3,84,63,42,30.00,29.77,29,10,29,0.00
2014-1-14,49.3,34.0,25.5,34.5,25.2,15.3,92,71,46,30.02,29.72,28,7,28,0.00
2014-1-15,29.8,23.5,15.8,16.8,11.3,3.9,73,59,45,30.28,27.17,32,8,32,0.00
2014-1-16,33.6,26.4,16.0,25.2,16.9,6.0,82,67,55,30.30,29.85,20,6,20,0.00
2014-1-17,32.5,18.5,12.9,27.6,6.6,-7.2,87,60,35,30.46,29.87,28,10,28,0.00
2014-1-18,31.1,21.9,13.1,28.3,11.8,4.1,89,66,43,30.37,29.76,13,5,17,0.00
2014-1-19,37.0,29.0,18.1,28.4,17.9,10.7,89,64,47,30.11,29.79,23,10,23,0.05
2014-1-20,47.3,37.4,31.1,28.7,24.8,21.0,76,61,44,30.29,29.76,21,5,21,0.02
2014-1-21,33.1,17.0,1.6,26.4,1.9,-14.3,85,55,22,30.64,29.84,34,6,34,0.02
2014-1-22,18.3,9.1,-2.2,11.8,-2.3,-13.2,75,59,47,30.50,30.12,38,5,38,0.00
2014-1-23,12.0,4.1,-2.0,1.2,-13.2,-19.3,64,44,28,30.78,30.32,21,8,21,0.00
2014-1-24,23.4,10.1,-5.1,9.0,-9.2,-16.9,60,42,25,31.00,29.89,44,8,44,0.00
2014-1-25,37.2,23.7,12.6,24.3,5.7,-13.0,84,49,23,30.08,29.67,50,14,50,0.05
2014-1-26,48.2,31.1,11.7,30.3,10.3,-12.4,66,42,28,30.09,29.60,18,5,18,0.00
2014-1-27,35.2,10.7,0.3,25.1,-10.5,-25.4,79,38,27,30.71,29.87,35,13,35,0.00
2014-1-28,17.4,4.8,-6.2,-12.2,-18.2,-25.2,48,33,22,30.95,30.40,18,4,18,0.00
2014-1-29,29.3,15.3,4.1,-0.5,-8.9,-13.4,45,34,23,30.81,30.33,29,8,29,0.00
2014-1-30,37.6,26.4,15.4,5.0,-3.4,-9.3,35,27,21,30.67,29.94,37,10,37,0.00
2014-1-31,43.3,36.1,33.1,24.2,9.7,0.1,66,35,22,30.49,30.08,20,4,20,0.00